SCP
1 1 1 1 1 1 1 1 1 1 1 1 0 0 0 1 1 1 0 0 0 0 0 0 0 0 0 0 0 0 0 0 0 0 0 0 0 0 0 0 0 0 0
1 1 1 1 1 1 1 1 1 1 1 1 1 1 1 1 1 1 0 0 0 0 0 0 0 0 0 0 0 0 0 0 0 0 0 0 0 0 0 0 0 0 0
1 1 1 1 1 1 1 1 1 1 1 1 1 1 1 1 1 1 1 0 0 0 0 0 0 0 0 0 0 0 0 0 0 0 0 0 0 0 0 0 0 0 0
1 1 1 1 1 1 1 1 1 1 1 1 1 1 1 1 1 1 1 1 0 0 0 0 0 0 0 0 0 0 0 0 0 0 0 0 0 0 0 0 0 0 0
1 1 1 1 1 1 1 1 2 1 1 1 1 1 1 1 1 1 1 1 0 0 0 0 0 0 0 0 0 0 0 0 0 0 0 0 0 0 0 0 0 0 0
1 1 1 1 1 1 1 2 2 2 1 1 1 1 1 1 1 1 1 1 1 0 0 0 0 0 0 0 0 0 0 0 0 0 0 0 0 0 0 0 0 0 0
1 1 1 1 1 1 1 2 2 2 1 1 1 1 1 1 1 1 1 1 1 0 0 1 1 1 1 0 0 0 0 0 0 0 0 0 0 0 0 0 0 0 0
1 1 1 1 1 1 1 1 2 2 1 1 1 1 1 1 1 1 1 1 1 0 1 1 1 1 1 1 1 0 0 0 0 0 0 0 0 0 0 0 0 0 0
0 1 1 1 1 1 1 1 1 2 1 1 1 1 1 1 1 1 1 1 1 1 1 1 1 1 1 1 1 1 1 0 0 0 0 0 0 0 0 0 0 0 0
0 0 1 1 1 1 1 1 1 1 2 1 1 1 1 1 1 1 1 1 1 1 1 1 1 1 1 1 1 1 1 1 0 0 0 0 0 0 0 0 0 0 0
1 1 1 1 1 1 1 1 1 1 2 2 1 1 1 1 1 1 1 1 1 1 1 1 1 1 1 1 1 1 1 1 1 1 0 0 0 0 0 0 0 0 0
1 1 1 1 1 1 1 1 1 1 1 2 2 2 1 1 1 1 1 1 1 1 1 1 1 0 0 1 1 1 1 1 1 1 1 1 0 0 0 0 0 0 0
1 1 1 1 1 1 1 1 1 1 1 2 2 2 2 1 1 1 1 1 1 1 1 1 0 0 0 0 0 0 0 1 1 1 1 1 1 1 1 1 0 0 0
0 1 1 1 1 1 1 1 1 1 2 2 2 2 2 1 1 1 1 1 1 1 1 1 0 0 0 0 0 0 0 0 0 1 1 1 1 1 1 1 0 0 0
1 1 1 1 1 1 1 1 1 1 2 2 2 2 2 1 1 1 1 1 1 1 1 1 1 0 0 0 0 0 0 0 0 0 0 0 0 0 0 0 0 0 0
1 1 1 1 1 1 1 1 1 1 1 2 1 1 1 1 1 1 1 1 1 1 1 1 1 0 0 0 0 0 0 0 0 0 0 0 0 0 0 0 0 0 0
1 1 1 1 1 1 1 1 1 1 1 1 1 1 1 1 1 1 1 1 1 1 1 1 1 0 0 0 0 0 0 0 0 0 0 0 0 0 0 0 0 0 0
1 1 1 1 1 1 1 1 1 1 1 1 1 1 1 1 1 1 1 1 1 1 1 1 1 1 0 0 0 0 0 0 0 0 0 0 0 0 0 0 0 0 0
1 1 1 1 1 1 1 1 1 1 1 1 1 1 1 1 1 1 1 1 1 1 1 1 1 1 0 0 0 0 0 0 0 0 0 0 0 0 0 0 0 0 0
1 1 1 1 1 1 1 1 1 0 0 0 0 0 0 0 0 0 1 1 1 1 0 0 0 0 0 0 0 0 0 0 0 1 0 0 0 0 0 0 0 0 0
1 1 1 1 1 1 1 1 1 0 0 0 0 0 0 0 0 0 1 1 1 1 0 0 0 0 0 0 0 0 0 0 1 1 1 0 0 0 0 0 0 0 0
1 1 1 1 1 1 1 1 1 1 1 1 1 1 1 0 1 1 1 1 1 1 0 0 0 0 0 0 0 0 0 0 0 0 0 0 0 0 0 0 0 0 0
1 1 1 1 1 1 1 1 1 1 1 1 1 1 1 1 1 1 1 1 1 0 0 0 0 0 0 0 0 0 0 0 0 0 0 0 0 0 0 0 0 0 0
1 1 1 1 1 1 1 1 1 1 1 1 1 1 1 1 1 1 1 1 0 0 0 0 0 0 0 0 0 0 0 0 0 0 0 0 0 0 0 0 0 0 0
1 1 1 1 1 1 1 1 1 1 1 1 1 1 1 1 1 1 0 0 0 0 0 0 0 0 0 0 0 0 0 0 0 0 0 0 0 0 0 0 0 0 0
1 1 1 1 1 1 1 1 1 1 1 1 1 1 1 1 1 1 0 0 0 0 0 0 0 0 0 0 0 0 0 0 0 0 0 0 0 0 0 0 0 0 0
Wind_Speed
8 7 7 8 8 7 6 5 3 2 1 1 1 0 0 1 1 2 2 2 2 3 2 3 2 2 2 2 2 2 3 2 1 1 1 1 2 2 1 2 3 3 4
8 8 7 7 8 7 6 5 4 3 1 1 0 0 0 0 1 2 2 2 2 2 2 2 2 3 2 2 2 2 2 2 2 1 1 1 1 0 3 3 3 3 3
8 9 7 7 7 7 7 5 4 3 2 1 1 0 1 1 1 1 1 1 2 2 2 2 2 2 2 1 2 2 2 3 2 1 1 1 1 1 1 1 2 2 2
7 7 8 6 6 7 7 6 5 4 3 2 0 0 1 1 1 1 1 1 1 1 1 2 2 2 2 2 2 2 2 2 3 2 1 1 0 0 1 1 0 1 2
7 7 8 7 6 7 8 7 6 4 3 2 1 0 1 1 1 1 1 0 1 1 1 1 1 2 2 2 2 2 2 2 2 3 2 2 2 1 1 1 1 1 1
5 6 7 7 6 7 8 8 7 5 4 3 2 1 0 1 1 1 0 0 0 1 2 2 1 2 2 2 2 2 2 3 3 3 3 2 2 2 1 2 2 1 1
5 6 6 6 5 6 7 8 8 6 5 4 2 1 0 0 0 1 1 1 1 1 2 2 1 2 2 2 2 1 2 2 3 2 2 2 2 2 1 1 2 2 2
6 6 7 6 6 6 6 7 7 6 5 4 3 2 1 1 0 1 1 1 1 1 1 1 1 1 2 2 2 2 2 2 3 3 2 3 2 2 2 1 2 2 2
6 6 6 7 6 6 6 6 6 6 5 5 4 2 2 1 1 1 1 1 1 1 1 1 1 1 1 2 2 1 2 2 2 3 3 3 3 2 2 2 1 1 2
6 7 6 6 6 6 6 6 6 5 5 5 4 3 3 2 1 1 0 1 1 2 1 1 1 1 1 2 2 2 2 2 2 2 2 3 3 3 3 2 2 1 2
5 6 6 6 5 5 6 5 5 6 5 4 4 3 3 2 2 1 0 0 1 1 1 1 2 1 1 2 2 3 2 2 2 3 3 3 4 3 3 3 3 2 2
6 6 6 5 4 4 4 4 4 5 6 4 4 3 2 2 2 1 0 0 0 1 1 1 2 2 2 2 2 3 3 3 2 2 2 3 3 3 3 3 3 3 3
6 5 6 5 4 4 3 2 2 2 3 4 4 3 2 1 0 0 0 0 0 0 1 1 1 2 2 2 3 3 3 3 3 2 2 2 3 3 3 4 4 4 4
5 5 5 5 4 4 3 2 2 2 3 3 3 3 2 2 1 1 0 0 0 0 0 1 1 1 2 3 3 4 4 3 3 2 2 2 2 2 3 3 4 4 4
5 5 5 5 4 4 3 2 2 2 3 3 2 2 1 1 0 0 0 0 0 1 0 0 1 2 1 2 3 4 4 3 4 3 3 3 2 2 3 4 3 4 4
5 5 4 4 4 3 3 2 2 2 2 2 2 2 1 1 1 0 0 0 0 1 1 0 1 1 2 3 4 4 4 4 4 4 3 4 2 3 4 6 6 4 4
4 4 4 3 3 3 3 2 2 2 3 3 2 2 1 1 1 1 0 0 1 1 1 1 1 0 1 3 4 5 5 4 4 4 3 5 4 3 3 5 6 6 7
4 3 2 3 3 3 3 3 3 3 3 3 3 3 3 2 2 2 2 1 1 1 1 2 1 1 2 3 4 6 5 5 4 3 3 3 4 5 5 5 5 5 5
4 3 3 3 3 3 4 3 3 3 2 3 2 2 2 2 2 3 2 1 2 2 2 2 1 1 1 2 4 5 4 4 4 3 3 3 3 5 6 5 5 6 5
4 4 4 3 3 3 4 3 2 2 2 2 1 1 1 1 1 1 2 2 2 2 2 2 1 1 1 2 2 4 3 4 4 3 2 2 3 5 5 4 5 6 6
4 5 4 3 3 3 3 2 2 2 2 1 1 1 1 1 1 1 1 2 2 3 2 2 2 1 1 2 2 2 2 4 4 4 3 2 3 4 5 5 5 7 7
4 4 4 3 3 2 2 2 2 2 1 1 1 0 1 2 1 1 2 2 3 3 3 2 2 1 1 1 1 2 3 4 4 4 3 3 5 6 7 6 8 9 7
3 3 3 3 3 3 2 1 2 1 1 1 1 1 1 1 1 1 3 3 2 2 2 2 2 1 1 1 1 2 4 5 4 4 5 7 8 7 6 7 8 6 4
2 2 2 2 2 2 2 2 1 1 1 1 1 1 1 1 1 2 2 2 2 2 2 3 3 3 2 3 3 3 3 4 4 4 6 8 8 7 6 5 4 3 3
2 2 1 1 1 1 1 2 2 1 1 2 2 3 2 1 1 1 1 1 1 1 1 1 2 2 3 3 3 3 3 4 4 5 5 4 3 3 3 3 2 2 2
1 1 1 1 1 1 1 1 1 1 1 3 3 3 2 1 2 1 0 1 1 1 2 2 1 0 1 4 5 5 6 7 6 4 4 4 4 3 3 3 3 2 2
Wind_Direction
149 147 148 142 138 136 132 128 122 111 107 86 103 194 63 97 102 103 83 60 21 12 19 8 1 1 29 20 359 354 332 322 310 315 316 277 178 164 203 190 181 190 186
144 144 152 153 148 145 142 137 141 139 141 132 188 184 82 343 107 77 85 57 43 10 17 25 353 9 19 13 0 354 335 321 332 324 332 335 323 277 208 190 191 196 185
154 155 158 160 156 150 150 149 143 144 150 166 192 235 127 44 70 107 97 94 69 53 11 9 4 354 19 12 334 357 333 324 321 350 357 332 343 309 269 201 179 179 179
149 154 157 160 161 155 152 141 139 143 152 160 230 195 128 95 74 102 104 100 78 62 41 22 359 343 360 6 335 8 327 320 324 325 307 298 310 275 299 296 198 210 201
146 150 155 157 160 157 152 145 141 144 146 163 182 196 51 57 67 63 56 94 97 65 46 61 5 353 4 359 354 359 339 336 343 334 327 336 334 305 271 302 309 288 232
136 141 146 148 158 154 153 149 143 149 159 173 172 157 138 17 46 48 7 305 92 46 31 48 25 17 3 2 354 338 346 351 348 340 336 342 341 331 325 306 302 295 273
129 131 129 132 142 146 148 145 145 154 163 164 163 164 180 162 4 309 261 282 76 64 34 36 26 16 5 354 338 342 345 350 333 332 332 330 320 320 315 310 309 312 295
122 127 128 131 133 138 140 138 145 155 158 156 155 149 156 237 269 296 308 357 27 79 66 60 30 15 1 354 343 349 344 343 325 324 330 320 318 317 315 306 315 316 305
119 124 125 126 134 139 142 145 150 155 159 161 160 159 176 226 305 322 321 357 358 31 62 71 45 355 0 349 337 344 347 335 323 320 329 326 315 321 324 309 284 280 302
120 121 121 125 131 134 133 143 156 158 162 165 177 174 182 199 226 253 151 21 4 11 18 21 1 348 6 4 336 329 335 335 331 319 333 327 324 328 323 317 307 286 281
108 115 117 114 119 127 139 152 154 157 167 174 173 179 174 191 195 205 226 90 351 355 11 354 338 339 347 344 330 323 330 327 325 326 340 329 315 328 325 322 320 310 299
100 102 109 108 109 108 122 141 156 172 170 170 167 176 170 173 180 183 234 124 54 344 4 345 334 327 351 343 328 319 326 321 320 319 329 328 323 330 322 320 311 304 294
95 97 97 95 86 78 75 115 163 155 163 161 154 148 152 158 207 227 217 151 202 325 353 320 330 336 341 330 321 313 305 305 309 315 321 323 325 328 322 314 312 306 305
100 97 101 99 92 83 75 66 70 106 117 135 146 142 157 174 202 218 218 188 253 241 286 315 335 330 348 342 332 319 306 305 303 302 300 299 309 311 309 305 310 308 308
95 88 91 93 90 86 81 70 59 76 94 107 110 110 136 156 160 137 150 100 288 275 294 328 315 309 319 342 337 315 309 310 306 307 306 293 287 313 306 308 312 306 302
100 101 93 98 102 97 88 85 73 79 94 98 92 88 81 79 69 76 66 79 295 307 312 253 273 314 332 350 350 331 314 306 299 298 299 287 279 294 289 299 299 292 287
88 85 98 105 110 111 99 95 109 101 85 78 76 72 72 72 57 3 55 344 297 302 293 289 273 294 341 331 333 324 300 294 296 303 304 303 318 318 306 288 278 280 279
99 88 100 108 114 110 98 92 89 87 83 79 69 51 34 36 40 32 28 10 328 302 280 273 279 296 330 331 324 315 286 287 292 299 298 303 311 322 321 303 294 283 279
100 96 102 102 99 106 106 100 94 88 86 79 70 52 37 30 31 24 360 338 308 298 289 273 265 271 308 325 323 317 291 293 296 291 305 308 305 315 316 302 299 296 290
84 87 87 88 89 90 99 100 94 87 69 62 48 31 20 24 21 0 320 315 302 286 285 287 280 272 272 269 300 307 297 300 299 297 290 311 316 319 323 303 298 298 300
71 76 79 77 70 71 89 102 93 82 74 57 17 24 356 319 326 316 305 305 302 296 286 270 263 247 242 244 257 288 303 309 309 308 305 310 319 315 314 300 289 288 293
71 66 70 71 68 67 74 82 64 51 52 21 12 10 294 288 319 316 299 294 287 280 274 271 267 256 238 241 236 240 263 292 303 304 307 315 316 301 290 284 286 292 295
70 70 77 80 65 57 55 67 57 37 19 351 319 301 301 319 303 270 272 273 277 290 304 311 312 321 14 43 350 274 276 286 286 305 315 309 297 289 279 270 276 285 288
72 80 77 77 61 51 30 37 44 25 356 304 284 271 260 257 276 288 299 327 339 338 340 341 337 339 5 21 5 330 306 303 302 310 307 293 286 283 286 290 277 261 270
63 70 82 70 39 37 27 35 25 8 335 297 276 264 257 256 276 326 338 13 13 347 304 343 336 342 350 349 328 316 315 316 317 315 296 291 296 296 292 293 294 297 296
80 65 62 58 33 22 11 24 14 352 302 279 267 257 252 238 226 198 307 355 265 197 182 202 232 288 287 303 307 302 297 296 300 302 291 295 305 310 311 310 307 307 310